SES-5

Last updated on Sun Apr 05 2026 00:02:50 GMT+0000 (Coordinated Universal Time)

1 38652U 12036A 26094.17723981 .00000033 00000+0 00000+0 0 9999 2 38652 0.0597 304.3178 0001981 71.5629 245.3841 1.00270782 43711
UTC large
Height (km)
Speed (km/s)
/
Latitude / Longitude
Inclination (degrees)
Orbital Period (minutes)
Azimuth
Elevation
Range (km)
Doppler Factor

Next 0 passes for location: London (51.5072 / 0.1276)

Sorry there are no passes over London.